Weather History for Newcastle, WY

Change the Weather History Date:

Saturday, January 18, 2014

  Actual Average (KCUT) Record (KCUT)
Temperature  
Mean Temperature 30 °F 24 °F  
Max Temperature 37 °F 35 °F 55 °F (1976)
Min Temperature 23 °F 14 °F -30 °F (1943)
Degree Days  
Heating Degree Days 35 41  
Month to date heating degree days 738  
Since 1 July heating degree days 4208  
Cooling Degree Days 0 0  
Month to date cooling degree days 0  
Year to date cooling degree days 0  
Moisture  
Dew Point 21 °F    
Average Humidity 65    
Maximum Humidity 80    
Minimum Humidity 48    
Precipitation  
Precipitation 0.00 in 0.01 in 0.40 in (1933)
Month to date precipitation 0.17  
Year to date precipitation 0.17  
Sea Level Pressure  
Sea Level Pressure 30.06 in    
Wind  
Wind Speed 19 mph (NNW)    
Max Wind Speed 38 mph    
Max Gust Speed 50 mph    
Visibility 10 miles    
Events      
T = Trace of Precipitation, MM = Missing Value Source: NWS Daily Summary

Daily Weather History Graph

Daily Weather History Graph

Search for Another Location

Airport:

Trip Planner

Search our weather history database for the weather conditions in past years. The results will help you decide how hot, cold, wet, or windy it might be!

Date:

Astronomy

Jan. 18, 2014 Rise Set
Actual Time 7:26 AM MST 4:49 PM MST
Civil Twilight 6:54 AM MST 5:21 PM MST
Nautical Twilight 6:19 AM MST 5:56 PM MST
Astronomical Twilight 5:45 AM MST 6:30 PM MST
Moon 7:40 PM MST (1/18) 8:21 AM MST (1/18)
Length of Visible Light 10h 26m
Length of Day
9h 22m
Waning Gibbous, 94% of the Moon is Illuminated
Jan 18
Waning Gibbous
Jan 23
Last Quarter
Jan 30
New
Feb 6
First Quarter
Feb 14
Full

Hourly Weather History & Observations

Time (MST) Temp. Windchill Dew Point Humidity Pressure Visibility Wind Dir Wind Speed Gust Speed Precip Events Conditions
12:15 AM 32.0 °F 20.1 °F 21.2 °F 64% 29.97 in 10.0 mi NW 19.6 mph 27.6 mph N/A   Clear
12:35 AM 32.0 °F 19.8 °F 21.2 °F 64% 29.97 in 10.0 mi NW 20.7 mph - N/A   Clear
12:55 AM 32.0 °F 21.2 °F 21.2 °F 64% 29.97 in 10.0 mi NW 16.1 mph 21.9 mph N/A   Clear
1:15 AM 32.0 °F 22.1 °F 21.2 °F 64% 29.97 in 10.0 mi NW 13.8 mph - N/A   Clear
1:35 AM 30.2 °F 19.3 °F 21.2 °F 69% 29.98 in 10.0 mi NW 15.0 mph - N/A   Clear
1:55 AM 32.0 °F 20.5 °F 23.0 °F 69% 29.99 in 10.0 mi NW 18.4 mph - N/A   Clear
2:15 AM 32.0 °F 19.8 °F 23.0 °F 69% 30.00 in 10.0 mi NW 20.7 mph 26.5 mph N/A   Clear
2:35 AM 32.0 °F 19.8 °F 23.0 °F 69% 30.00 in 10.0 mi NNW 20.7 mph 25.3 mph N/A   Clear
2:55 AM 32.0 °F 18.9 °F 23.0 °F 69% 30.00 in 10.0 mi NW 24.2 mph 27.6 mph N/A   Clear
3:15 AM 32.0 °F 19.5 °F 23.0 °F 69% 30.00 in 10.0 mi NW 21.9 mph 27.6 mph N/A   Clear
3:35 AM 32.0 °F 18.6 °F 23.0 °F 69% 30.02 in 10.0 mi NW 25.3 mph 29.9 mph N/A   Clear
3:55 AM 32.0 °F 19.2 °F 23.0 °F 69% 30.01 in 10.0 mi NNW 23.0 mph 29.9 mph N/A   Clear
4:15 AM 32.0 °F 18.1 °F 23.0 °F 69% 30.02 in 10.0 mi NNW 27.6 mph 35.7 mph N/A   Clear
4:35 AM 32.0 °F 19.5 °F 23.0 °F 69% 30.02 in 10.0 mi NNW 21.9 mph 35.7 mph N/A   Clear
4:55 AM 33.8 °F 20.8 °F 23.0 °F 65% 30.03 in 10.0 mi NNW 26.5 mph 41.4 mph N/A   Clear
5:15 AM 33.8 °F 20.3 °F 23.0 °F 65% 30.03 in 10.0 mi NNW 28.8 mph 36.8 mph N/A   Clear
5:35 AM 33.8 °F 20.3 °F 23.0 °F 65% 30.02 in 10.0 mi NNW 28.8 mph 39.1 mph N/A   Clear
5:55 AM 32.0 °F 17.6 °F 23.0 °F 69% 30.03 in 10.0 mi NNW 29.9 mph 40.3 mph N/A   Clear
6:15 AM 32.0 °F 17.0 °F 23.0 °F 69% 30.03 in 10.0 mi NW 33.4 mph 41.4 mph N/A   Clear
6:35 AM 32.0 °F 17.4 °F 21.2 °F 64% 30.04 in 10.0 mi NNW 31.1 mph 42.6 mph N/A   Clear
6:55 AM 32.0 °F 17.0 °F 21.2 °F 64% 30.04 in 10.0 mi NNW 33.4 mph 41.4 mph N/A   Clear
7:15 AM 32.0 °F 17.4 °F 21.2 °F 64% 30.04 in 10.0 mi NNW 31.1 mph 39.1 mph N/A   Clear
7:35 AM 32.0 °F 17.4 °F 21.2 °F 64% 30.05 in 10.0 mi NNW 31.1 mph 41.4 mph N/A   Clear
7:55 AM 32.0 °F 17.2 °F 19.4 °F 60% 30.05 in 10.0 mi NNW 32.2 mph 40.3 mph N/A   Clear
8:15 AM 32.0 °F 16.3 °F 19.4 °F 60% 30.06 in 10.0 mi NNW 36.8 mph 46.0 mph N/A   Clear
8:35 AM 32.0 °F 16.7 °F 19.4 °F 60% 30.06 in 10.0 mi NNW 34.5 mph 43.7 mph N/A   Clear
8:55 AM 32.0 °F 16.2 °F 19.4 °F 60% 30.06 in 10.0 mi NNW 38.0 mph 49.5 mph N/A   Clear
9:15 AM 32.0 °F 17.2 °F 19.4 °F 60% 30.08 in 10.0 mi NNW 32.2 mph 40.3 mph N/A   Clear
9:35 AM 32.0 °F 18.4 °F 17.6 °F 55% 30.10 in 10.0 mi NNW 26.5 mph 44.9 mph N/A   Clear
9:55 AM 33.8 °F 20.8 °F 15.8 °F 48% 30.11 in 10.0 mi NNW 26.5 mph 38.0 mph N/A   Clear
10:15 AM 33.8 °F 22.8 °F 17.6 °F 52% 30.14 in 10.0 mi NW 18.4 mph 34.5 mph N/A   Clear
10:35 AM 33.8 °F 22.2 °F 15.8 °F 48% 30.17 in 10.0 mi NW 20.7 mph 26.5 mph N/A   Clear
10:55 AM 33.8 °F 22.2 °F 17.6 °F 52% 30.17 in 10.0 mi WNW 20.7 mph 24.2 mph N/A   Clear
11:15 AM 33.8 °F 23.2 °F 19.4 °F 56% 30.17 in 10.0 mi WNW 17.3 mph 23.0 mph N/A   Clear
11:35 AM 33.8 °F 21.9 °F 23.0 °F 65% 30.18 in 10.0 mi WNW 21.9 mph 27.6 mph N/A   Clear
11:55 AM 33.8 °F 22.5 °F 23.0 °F 65% 30.19 in 10.0 mi WNW 19.6 mph 24.2 mph N/A   Clear
12:15 PM 33.8 °F 22.5 °F 21.2 °F 60% 30.19 in 10.0 mi WNW 19.6 mph 24.2 mph N/A   Clear
12:35 PM 33.8 °F 24.3 °F 21.2 °F 60% 30.19 in 10.0 mi NW 13.8 mph - N/A   Clear
12:55 PM 35.6 °F 26.6 °F 21.2 °F 56% 30.17 in 10.0 mi WNW 13.8 mph - N/A   Clear
1:15 PM 35.6 °F 27.1 °F 23.0 °F 60% 30.17 in 10.0 mi WNW 12.7 mph - N/A   Clear
1:35 PM 35.6 °F 28.6 °F 21.2 °F 56% 30.15 in 10.0 mi NW 9.2 mph - N/A   Clear
1:55 PM 35.6 °F 28.6 °F 23.0 °F 60% 30.16 in 10.0 mi WNW 9.2 mph - N/A   Clear
2:15 PM 35.6 °F 30.7 °F 23.0 °F 60% 30.15 in 10.0 mi NW 5.8 mph - N/A   Clear
2:35 PM 35.6 °F 29.9 °F 21.2 °F 56% 30.14 in 10.0 mi NNW 6.9 mph - N/A   Clear
2:55 PM 35.6 °F 29.9 °F 23.0 °F 60% 30.14 in 10.0 mi North 6.9 mph - N/A   Clear
3:15 PM 35.6 °F 29.2 °F 21.2 °F 56% 30.12 in 10.0 mi North 8.1 mph - N/A   Clear
3:35 PM 35.6 °F 28.0 °F 21.2 °F 56% 30.11 in 10.0 mi North 10.4 mph - N/A   Clear
3:55 PM 37.4 °F 31.4 °F 19.4 °F 48% 30.11 in 10.0 mi North 8.1 mph - N/A   Clear
4:15 PM 37.4 °F 32.1 °F 21.2 °F 52% 30.11 in 10.0 mi North 6.9 mph - N/A   Clear
4:35 PM 35.6 °F 29.2 °F 21.2 °F 56% 30.10 in 10.0 mi North 8.1 mph - N/A   Clear
4:55 PM 35.6 °F 29.9 °F 21.2 °F 56% 30.09 in 10.0 mi NNE 6.9 mph - N/A   Clear
5:15 PM 33.8 °F 27.7 °F 21.2 °F 60% 30.08 in 10.0 mi NNE 6.9 mph - N/A   Clear
5:35 PM 32.0 °F 25.6 °F 21.2 °F 64% 30.08 in 10.0 mi NNE 6.9 mph - N/A   Clear
5:55 PM 32.0 °F 24.8 °F 21.2 °F 64% 30.07 in 10.0 mi North 8.1 mph - N/A   Clear
6:15 PM 30.2 °F 23.4 °F 21.2 °F 69% 30.07 in 10.0 mi NNE 6.9 mph - N/A   Clear
6:35 PM 28.4 °F 22.2 °F 21.2 °F 74% 30.06 in 10.0 mi NE 5.8 mph - N/A   Clear
6:55 PM 28.4 °F 19.7 °F 21.2 °F 74% 30.04 in 10.0 mi NNE 9.2 mph - N/A   Clear
7:15 PM 28.4 °F 20.4 °F 21.2 °F 74% 30.04 in 10.0 mi NNE 8.1 mph - N/A   Clear
7:35 PM 28.4 °F 21.2 °F 21.2 °F 74% 30.03 in 10.0 mi NNE 6.9 mph - N/A   Clear
7:55 PM 26.6 °F - 19.4 °F 74% 30.03 in 10.0 mi Calm Calm - N/A   Clear
8:15 PM 26.6 °F 20.0 °F 19.4 °F 74% 30.03 in 10.0 mi NNE 5.8 mph - N/A   Clear
8:35 PM 26.6 °F 21.2 °F 19.4 °F 74% 30.02 in 10.0 mi NE 4.6 mph - N/A   Clear
8:55 PM 26.6 °F 19.1 °F 19.4 °F 74% 30.00 in 10.0 mi NNE 6.9 mph - N/A   Clear
9:15 PM 26.6 °F 21.2 °F 19.4 °F 74% 30.00 in 10.0 mi NNE 4.6 mph - N/A   Clear
9:35 PM 26.6 °F 19.1 °F 19.4 °F 74% 30.01 in 10.0 mi North 6.9 mph - N/A   Clear
9:55 PM 24.8 °F 19.1 °F 19.4 °F 80% 30.01 in 10.0 mi NNE 4.6 mph - N/A   Clear
10:15 PM 26.6 °F 18.2 °F 19.4 °F 74% 30.01 in 10.0 mi North 8.1 mph - N/A   Clear
10:35 PM 26.6 °F 18.2 °F 19.4 °F 74% 30.01 in 10.0 mi NNE 8.1 mph - N/A   Clear
10:55 PM 24.8 °F - 19.4 °F 80% 30.00 in 10.0 mi Calm Calm - N/A   Clear
11:15 PM 23.0 °F 18.4 °F 17.6 °F 80% 30.00 in 10.0 mi North 3.5 mph - N/A   Clear
11:35 PM 23.0 °F 18.4 °F 17.6 °F 80% 30.00 in 10.0 mi ENE 3.5 mph - N/A   Clear
11:55 PM 23.0 °F 18.4 °F 17.6 °F 80% 29.99 in 10.0 mi North 3.5 mph - N/A   Clear